DW2849 Weather Reports


Display with metric or nautical units.
time (UTC)temp
F
wind
direction
speed
MPH
gust
MPH
rain 1hr
in
rain 24hr
in
rain mn
in
humidity
%
barometer
mb
20260503020004 51 222 2.0 4.0 0.00 0.00 0.00 83 1010.3
20260503015305 51 267 2.0 6.0 0.00 0.00 0.00 83 1010.4
20260503014412 51 257 2.0 9.0 0.00 0.00 0.00 83 1010.5
20260503013712 51 284 3.0 9.0 0.00 0.00 0.00 82 1010.5
20260503013012 51 231 2.0 4.0 0.00 0.00 0.00 82 1010.5
20260503012312 51 233 3.0 5.0 0.00 0.00 0.00 82 1010.6
20260503011421 52 238 3.0 5.0 0.00 0.00 0.00 81 1010.6
20260503010021 52 259 2.0 4.0 0.00 0.00 0.00 82 1010.6
20260503005321 52 220 2.0 4.0 0.00 0.00 0.00 82 1010.6
20260503004621 52 220 2.0 4.0 0.00 0.00 0.00 82 1010.6
20260503003730 52 242 3.0 4.0 0.00 0.00 0.00 82 1010.6
20260503003030 52 220 3.0 4.0 0.00 0.00 0.00 81 1010.6
20260503002330 52 245 2.0 4.0 0.00 0.00 0.00 81 1010.6
20260503001630 52 208 2.0 5.0 0.00 0.00 0.00 82 1010.6
20260503000739 52 250 2.0 4.0 0.00 0.00 0.00 82 1010.7
20260503000040 52 194 3.0 4.0 0.00 0.00 0.00 82 1010.8
20260502235147 52 230 2.0 6.0 0.00 0.00 0.00 82 1010.9
20260502234447 52 270 3.0 5.0 0.00 0.00 0.00 82 1010.9
20260502233747 53 250 3.0 5.0 0.00 0.00 0.00 82 1011.0
20260502233047 53 225 3.0 5.0 0.00 0.00 0.00 81 1011.0
20260502232348 53 260 3.0 5.0 0.00 0.00 0.00 80 1011.1
20260502231647 54 200 2.0 6.0 0.00 0.00 0.00 80 1011.1
20260502230947 55 168 3.0 6.0 0.00 0.00 0.00 79 1011.2
20260502230248 55 210 3.0 5.0 0.00 0.00 0.00 79 1011.2
20260502225356 55 165 1.0 4.0 0.00 0.00 0.00 79 1011.2
20260502224657 55 205 2.0 4.0 0.00 0.00 0.00 79 1011.3
20260502223956 55 210 2.0 4.0 0.00 0.00 0.00 79 1011.4
20260502223256 55 222 2.0 9.0 0.00 0.00 0.00 79 1011.4
20260502222406 55 245 2.0 3.0 0.00 0.00 0.00 79 1011.5
20260502221705 55 180 1.0 4.0 0.00 0.00 0.00 79 1011.6
20260502221006 55 162 2.0 3.0 0.00 0.00 0.00 78 1011.7
20260502220305 55 112 1.0 4.0 0.00 0.00 0.00 79 1011.8
20260502215605 54 112 2.0 4.0 0.00 0.00 0.00 79 1011.8
20260502214714 55 170 2.0 4.0 0.00 0.00 0.00 80 1011.9
20260502214014 54 163 2.0 5.0 0.00 0.00 0.00 80 1011.9
20260502213315 53 175 2.0 5.0 0.00 0.00 0.00 81 1012.0
20260502212423 53 252 3.0 6.0 0.00 0.00 0.00 81 1012.0
20260502211723 53 225 2.0 4.0 0.00 0.00 0.00 81 1012.2
20260502211022 53 228 2.0 4.0 0.00 0.00 0.00 82 1012.2
20260502210323 53 230 2.0 4.0 0.00 0.00 0.00 82 1012.3
20260502205624 53 245 2.0 4.0 0.00 0.00 0.00 82 1012.3
20260502204923 53 255 2.0 4.0 0.00 0.00 0.00 83 1012.3
20260502204223 53 212 2.0 4.0 0.00 0.00 0.00 83 1012.4
20260502203523 53 208 2.0 3.0 0.00 0.00 0.00 83 1012.4
20260502202631 52 192 1.0 3.0 0.00 0.00 0.00 84 1012.5
20260502201931 52 170 2.0 3.0 0.00 0.00 0.00 84 1012.5
20260502201231 52 238 1.0 3.0 0.00 0.00 0.00 84 1012.5
20260502200531 52 190 2.0 4.0 0.00 0.00 0.00 84 1012.6
20260502195831 52 265 1.0 3.0 0.00 0.00 0.00 84 1012.6
20260502194940 52 205 2.0 3.0 0.00 0.00 0.00 85 1012.6
20260502194240 52 198 2.0 4.0 0.00 0.00 0.00 85 1012.6
20260502193540 52 278 2.0 3.0 0.00 0.00 0.00 85 1012.6
20260502192649 51 222 2.0 3.0 0.00 0.00 0.00 85 1012.7
20260502191949 51 214 2.0 4.0 0.00 0.00 0.00 85 1012.7
20260502191249 51 240 2.0 6.0 0.00 0.00 0.00 85 1012.8
20260502190548 52 245 2.0 6.0 0.00 0.00 0.00 85 1012.8
20260502185848 52 245 2.0 3.0 0.00 0.00 0.00 85 1012.8
20260502185149 52 228 1.0 2.0 0.00 0.00 0.00 85 1012.8
20260502184257 52 180 1.0 2.0 0.00 0.00 0.00 85 1012.8
20260502183557 52 180 1.0 3.0 0.00 0.00 0.00 85 1012.6
20260502182857 52 212 1.0 3.0 0.00 0.00 0.00 85 1012.7
20260502182157 52 169 1.0 2.0 0.00 0.00 0.00 85 1012.6
20260502181457 52 228 0.0 3.0 0.00 0.00 0.00 86 1012.5
20260502180606 51 11 0.0 2.0 0.00 0.00 0.00 86 1012.5
20260502163824 50 11 0.0 1.0 0.00 0.00 0.00 86 1012.3
20260502163123 50 0 0.0 2.0 0.00 0.00 0.00 87 1012.2
20260502162423 50 315 1.0 2.0 0.00 0.00 0.00 86 1012.2
20260502161723 50 259 1.0 2.0 0.00 0.00 0.00 86 1012.2
20260502160832 49 290 0.0 0.0 0.00 0.00 0.00 86 1012.2
20260502160132 49 98 0.0 2.0 0.00 0.00 0.00 87 1012.3
20260502151740 49 56 0.0 0.0 0.00 0.00 0.00 87 1011.8
20260502150849 49 68 0.0 1.0 0.00 0.00 0.00 87 1011.7
20260502150149 49 45 0.0 0.0 0.00 0.00 0.00 87 1011.6
20260502130415 49 45 2.0 2.0 0.00 0.00 0.00 86 1010.8
20260502123615 49 90 1.0 2.0 0.00 0.00 0.00 86 1010.9
20260502122915 49 45 0.0 2.0 0.00 0.00 0.00 86 1010.9
20260502122024 49 262 1.0 2.0 0.00 0.00 0.00 86 1011.1
20260502121324 49 135 1.0 2.0 0.00 0.00 0.00 86 1010.9
20260502120623 49 225 0.0 2.0 0.00 0.00 0.00 86 1011.1
20260502115923 49 155 1.0 2.0 0.00 0.00 0.00 86 1010.9
20260502115032 49 45 1.0 2.0 0.00 0.00 0.00 86 1010.6
20260502114333 49 45 1.0 2.0 0.00 0.00 0.00 86 1010.8
20260502113632 49 90 1.0 3.0 0.00 0.00 0.00 86 1011.1
20260502112932 49 248 0.0 1.0 0.00 0.00 0.00 86 1011.2
20260502112232 49 142 0.0 2.0 0.00 0.00 0.00 86 1011.1
20260502111532 49 80 1.0 2.0 0.00 0.00 0.00 86 1010.9
20260502110832 49 112 0.0 2.0 0.00 0.00 0.00 86 1010.9
20260502105940 49 40 1.0 2.0 0.00 0.00 0.00 86 1010.8
20260502105048 49 45 1.0 2.0 0.00 0.00 0.00 86 1010.8
20260502104348 49 45 1.0 2.0 0.00 0.00 0.00 86 1010.8
20260502103648 49 45 0.0 1.0 0.00 0.00 0.00 86 1011.0
20260502102950 49 45 0.0 2.0 0.00 0.00 0.00 86 1011.0
20260502102248 49 45 1.0 2.0 0.00 0.00 0.00 86 1011.0
20260502101548 49 45 1.0 2.0 0.00 0.00 0.00 86 1011.0
20260502100848 49 30 1.0 3.0 0.00 0.00 0.00 86 1011.1
20260502100148 49 32 2.0 3.0 0.00 0.00 0.00 86 1010.9
20260502090912 49 45 2.0 3.0 0.00 0.00 0.00 86 1011.4
20260502090206 49 45 2.0 3.0 0.00 0.00 0.00 86 1011.4
20260502071130 49 40 3.0 4.0 0.00 0.00 0.00 85 1011.6
20260502070430 49 45 3.0 4.0 0.00 0.00 0.00 85 1011.5
20260502065538 49 45 3.0 4.0 0.00 0.00 0.00 85 1011.6
20260502064838 49 45 3.0 4.0 0.00 0.00 0.00 85 1011.6
20260502064138 48 42 3.0 4.0 0.00 0.00 0.00 85 1011.6
20260502063438 48 35 3.0 4.0 0.00 0.00 0.00 85 1011.6
20260502062738 48 40 3.0 4.0 0.00 0.00 0.00 85 1011.6
20260502062038 48 25 3.0 4.0 0.00 0.00 0.00 85 1011.7
20260502061338 48 45 3.0 4.0 0.00 0.00 0.00 85 1011.7
20260502060446 48 45 3.0 4.0 0.00 0.00 0.00 85 1011.7
20260502055746 49 45 3.0 3.0 0.00 0.00 0.00 85 1011.7
20260502055046 49 42 2.0 3.0 0.00 0.00 0.00 84 1011.9
20260502054346 50 30 3.0 3.0 0.00 0.00 0.00 84 1011.9
20260502053455 50 39 1.0 2.0 0.00 0.00 0.00 84 1011.9
20260502052754 50 45 1.0 2.0 0.00 0.00 0.00 84 1011.8
20260502051903 51 45 2.0 3.0 0.00 0.00 0.00 84 1011.8
20260502051203 51 90 0.0 1.0 0.00 0.00 0.00 84 1012.0
20260502050503 51 22 0.0 1.0 0.00 0.00 0.00 83 1011.9
20260502045804 52 0 0.0 1.0 0.00 0.00 0.00 83 1012.0
20260502045103 51 0 1.0 1.0 0.00 0.00 0.00 84 1011.9
20260502044403 52 180 0.0 0.0 0.00 0.00 0.00 84 1012.0
20260502043512 53 180 0.0 2.0 0.00 0.00 0.00 83 1012.0
20260502042812 54 180 1.0 3.0 0.00 0.00 0.00 81 1011.9
20260502042113 54 270 2.0 3.0 0.00 0.00 0.00 80 1011.8
20260502041412 53 275 0.0 2.0 0.00 0.00 0.00 82 1011.8
20260502040712 52 270 0.0 2.0 0.00 0.00 0.00 83 1011.7
20260502040012 52 225 1.0 2.0 0.00 0.00 0.00 83 1011.7
20260502035312 52 260 1.0 2.0 0.00 0.00 0.00 83 1011.7
20260502034424 52 208 1.0 2.0 0.00 0.00 0.00 83 1011.6
20260502033720 53 180 1.0 2.0 0.00 0.00 0.00 83 1011.5
20260502033020 53 135 0.0 2.0 0.00 0.00 0.00 83 1011.4
20260502032320 53 180 1.0 2.0 0.00 0.00 0.00 83 1011.4
20260502031620 54 180 2.0 2.0 0.00 0.00 0.00 82 1011.4
20260502030921 54 202 1.0 1.0 0.00 0.00 0.00 82 1011.3
20260502030029 55 202 1.0 1.0 0.00 0.00 0.00 81 1011.2
20260502025329 55 180 0.0 2.0 0.00 0.00 0.00 81 1011.2
20260502024437 56 197 1.0 2.0 0.00 0.00 0.00 80 1011.2
20260502023738 57 180 1.0 2.0 0.00 0.00 0.00 80 1011.2
20260502023038 58 220 1.0 2.0 0.00 0.00 0.00 79 1011.2
20260502022337 58 259 1.0 3.0 0.00 0.00 0.00 78 1011.2
20260502021446 58 232 2.0 6.0 0.00 0.00 0.00 79 1011.3
20260502020746 58 215 2.0 4.0 0.00 0.00 0.00 78 1011.3